GFSFLT2_prec_pwat_051.txt.gz
Precipitable_Water
0.85 0.86 0.87 0.84 0.86 0.88 0.88 0.88 0.83 0.78 0.74 0.70 0.67 0.63 0.59 0.56 0.53 0.50 0.48 0.46 0.46 0.46 0.45 0.45 0.44 0.45 0.45
0.84 0.85 0.84 0.84 0.86 0.84 0.83 0.78 0.69 0.66 0.62 0.60 0.56 0.54 0.48 0.41 0.40 0.39 0.38 0.38 0.38 0.38 0.39 0.39 0.40 0.41 0.41
0.72 0.75 0.76 0.77 0.76 0.75 0.72 0.68 0.63 0.58 0.52 0.46 0.39 0.35 0.34 0.34 0.35 0.35 0.35 0.35 0.35 0.35 0.35 0.35 0.35 0.35 0.35
0.71 0.72 0.71 0.70 0.64 0.56 0.51 0.50 0.44 0.37 0.33 0.31 0.29 0.30 0.31 0.31 0.30 0.30 0.31 0.31 0.31 0.31 0.31 0.32 0.32 0.32 0.33
0.67 0.63 0.56 0.53 0.46 0.40 0.33 0.30 0.27 0.25 0.25 0.24 0.25 0.26 0.26 0.27 0.27 0.28 0.28 0.29 0.30 0.31 0.32 0.32 0.33 0.33 0.33
0.52 0.45 0.40 0.33 0.30 0.27 0.24 0.21 0.16 0.22 0.22 0.21 0.25 0.24 0.25 0.27 0.27 0.28 0.30 0.30 0.31 0.32 0.32 0.31 0.31 0.32 0.33
0.29 0.27 0.24 0.24 0.24 0.21 0.19 0.18 0.16 0.21 0.24 0.21 0.25 0.24 0.26 0.27 0.28 0.29 0.31 0.31 0.32 0.32 0.32 0.32 0.32 0.32 0.33
0.23 0.22 0.22 0.22 0.20 0.20 0.19 0.19 0.24 0.26 0.27 0.19 0.24 0.23 0.25 0.27 0.29 0.30 0.31 0.32 0.33 0.33 0.34 0.35 0.35 0.35 0.35
0.21 0.20 0.19 0.20 0.20 0.18 0.19 0.21 0.21 0.22 0.26 0.23 0.24 0.24 0.25 0.25 0.27 0.29 0.31 0.32 0.33 0.34 0.35 0.36 0.36 0.36 0.36
0.17 0.18 0.17 0.17 0.22 0.24 0.24 0.21 0.22 0.21 0.27 0.24 0.25 0.25 0.20 0.23 0.25 0.27 0.29 0.30 0.33 0.34 0.35 0.36 0.37 0.36 0.34
0.15 0.15 0.20 0.23 0.25 0.26 0.27 0.26 0.24 0.24 0.29 0.29 0.27 0.27 0.25 0.22 0.24 0.27 0.28 0.29 0.30 0.33 0.35 0.36 0.37 0.37 0.34
0.18 0.21 0.23 0.25 0.27 0.29 0.29 0.30 0.31 0.30 0.32 0.32 0.28 0.27 0.24 0.23 0.22 0.25 0.26 0.29 0.30 0.31 0.34 0.37 0.37 0.38 0.38
0.21 0.23 0.26 0.27 0.28 0.28 0.30 0.31 0.32 0.32 0.33 0.34 0.31 0.28 0.27 0.26 0.24 0.25 0.23 0.24 0.29 0.31 0.33 0.36 0.36 0.36 0.35
0.23 0.25 0.27 0.27 0.27 0.29 0.28 0.29 0.29 0.29 0.33 0.35 0.32 0.30 0.28 0.29 0.28 0.25 0.24 0.22 0.27 0.30 0.32 0.36 0.38 0.39 0.38
0.25 0.26 0.26 0.27 0.28 0.29 0.29 0.29 0.27 0.27 0.27 0.29 0.31 0.33 0.33 0.31 0.27 0.26 0.24 0.25 0.29 0.31 0.32 0.34 0.37 0.39 0.40
0.27 0.27 0.27 0.27 0.27 0.29 0.29 0.28 0.27 0.27 0.27 0.28 0.29 0.28 0.29 0.31 0.33 0.27 0.25 0.26 0.30 0.32 0.32 0.33 0.35 0.39 0.41
0.28 0.28 0.28 0.28 0.28 0.28 0.28 0.28 0.27 0.28 0.29 0.30 0.29 0.28 0.23 0.21 0.28 0.31 0.25 0.27 0.29 0.29 0.31 0.33 0.35 0.37 0.40

GFSFLT2_prec_pwat_054.txt.gz
Precipitable_Water
0.93 0.94 0.93 0.94 0.93 0.93 0.87 0.88 0.88 0.89 0.90 0.87 0.80 0.77 0.74 0.68 0.62 0.60 0.57 0.54 0.51 0.48 0.47 0.48 0.48 0.48 0.48
0.88 0.87 0.83 0.83 0.80 0.80 0.78 0.80 0.77 0.76 0.74 0.70 0.70 0.68 0.62 0.58 0.52 0.48 0.45 0.43 0.43 0.42 0.42 0.43 0.43 0.44 0.44
0.71 0.72 0.70 0.71 0.72 0.76 0.76 0.77 0.74 0.68 0.63 0.57 0.50 0.45 0.41 0.39 0.39 0.39 0.38 0.37 0.38 0.37 0.37 0.37 0.37 0.37 0.37
0.65 0.68 0.70 0.68 0.69 0.63 0.60 0.60 0.56 0.48 0.41 0.36 0.33 0.32 0.30 0.30 0.32 0.32 0.32 0.32 0.32 0.33 0.33 0.33 0.33 0.34 0.34
0.66 0.65 0.64 0.62 0.57 0.52 0.44 0.37 0.30 0.28 0.24 0.22 0.23 0.24 0.24 0.25 0.26 0.27 0.28 0.30 0.32 0.33 0.33 0.34 0.35 0.35 0.35
0.61 0.52 0.46 0.41 0.33 0.28 0.25 0.20 0.16 0.21 0.20 0.17 0.22 0.22 0.25 0.26 0.27 0.29 0.30 0.31 0.32 0.33 0.34 0.34 0.34 0.35 0.35
0.36 0.28 0.24 0.24 0.23 0.20 0.19 0.17 0.15 0.18 0.20 0.18 0.24 0.23 0.25 0.26 0.27 0.28 0.29 0.31 0.32 0.33 0.34 0.35 0.35 0.35 0.36
0.23 0.21 0.21 0.21 0.20 0.19 0.18 0.17 0.17 0.22 0.25 0.19 0.23 0.22 0.25 0.27 0.28 0.28 0.28 0.29 0.30 0.31 0.33 0.35 0.36 0.36 0.37
0.21 0.20 0.19 0.20 0.20 0.18 0.14 0.16 0.18 0.21 0.24 0.22 0.23 0.23 0.25 0.25 0.26 0.27 0.28 0.29 0.28 0.30 0.31 0.34 0.35 0.36 0.37
0.16 0.17 0.17 0.17 0.18 0.21 0.22 0.19 0.20 0.19 0.25 0.23 0.24 0.25 0.21 0.26 0.27 0.27 0.29 0.29 0.27 0.28 0.30 0.32 0.34 0.34 0.34
0.16 0.15 0.16 0.20 0.23 0.24 0.25 0.24 0.22 0.22 0.27 0.28 0.26 0.26 0.25 0.24 0.25 0.26 0.29 0.29 0.28 0.25 0.27 0.30 0.32 0.34 0.34
0.14 0.18 0.21 0.23 0.25 0.27 0.28 0.29 0.29 0.28 0.31 0.31 0.27 0.27 0.26 0.23 0.21 0.25 0.28 0.30 0.28 0.24 0.24 0.28 0.31 0.33 0.35
0.20 0.22 0.24 0.26 0.27 0.27 0.29 0.30 0.31 0.32 0.33 0.33 0.32 0.31 0.28 0.24 0.23 0.25 0.25 0.28 0.28 0.25 0.25 0.27 0.29 0.31 0.31
0.21 0.24 0.26 0.26 0.27 0.28 0.27 0.28 0.28 0.29 0.33 0.34 0.33 0.31 0.27 0.28 0.27 0.25 0.28 0.26 0.27 0.25 0.26 0.28 0.31 0.32 0.33
0.24 0.24 0.25 0.27 0.27 0.29 0.29 0.28 0.26 0.26 0.28 0.31 0.33 0.33 0.32 0.31 0.27 0.28 0.27 0.27 0.29 0.27 0.27 0.27 0.30 0.32 0.34
0.25 0.26 0.26 0.27 0.27 0.28 0.29 0.28 0.27 0.27 0.27 0.29 0.30 0.30 0.30 0.31 0.34 0.29 0.28 0.28 0.29 0.28 0.28 0.26 0.26 0.31 0.33
0.26 0.27 0.28 0.28 0.28 0.28 0.28 0.28 0.28 0.28 0.28 0.30 0.29 0.28 0.24 0.22 0.28 0.33 0.28 0.28 0.29 0.27 0.28 0.28 0.26 0.28 0.32

GFSFLT2_prec_pwat_060.txt.gz
Precipitable_Water
0.84 0.87 0.90 0.89 0.89 0.94 0.96 0.93 0.93 0.91 0.92 0.92 0.87 0.85 0.86 0.88 0.86 0.83 0.81 0.78 0.76 0.75 0.72 0.68 0.65 0.63 0.63
0.79 0.79 0.82 0.81 0.86 0.87 0.84 0.86 0.85 0.84 0.85 0.84 0.83 0.83 0.82 0.79 0.76 0.75 0.74 0.69 0.64 0.60 0.57 0.55 0.54 0.53 0.53
0.70 0.77 0.76 0.81 0.79 0.80 0.79 0.80 0.81 0.82 0.82 0.79 0.75 0.74 0.71 0.67 0.63 0.58 0.53 0.49 0.44 0.43 0.42 0.41 0.41 0.40 0.41
0.70 0.69 0.72 0.75 0.75 0.71 0.71 0.73 0.71 0.70 0.64 0.60 0.57 0.52 0.45 0.39 0.34 0.31 0.30 0.30 0.31 0.32 0.33 0.34 0.34 0.34 0.34
0.66 0.64 0.65 0.66 0.64 0.66 0.61 0.59 0.53 0.46 0.35 0.29 0.26 0.23 0.22 0.22 0.23 0.24 0.25 0.27 0.28 0.31 0.32 0.33 0.34 0.35 0.35
0.64 0.61 0.55 0.47 0.40 0.31 0.26 0.22 0.17 0.24 0.19 0.17 0.19 0.16 0.18 0.21 0.22 0.24 0.27 0.30 0.31 0.32 0.32 0.33 0.33 0.33 0.34
0.25 0.23 0.22 0.22 0.22 0.20 0.18 0.17 0.16 0.19 0.17 0.12 0.16 0.17 0.21 0.24 0.26 0.28 0.29 0.30 0.31 0.31 0.31 0.31 0.32 0.32 0.32
0.19 0.20 0.20 0.21 0.21 0.20 0.19 0.18 0.18 0.17 0.17 0.12 0.20 0.20 0.23 0.25 0.26 0.28 0.30 0.30 0.30 0.30 0.30 0.31 0.31 0.32 0.32
0.24 0.24 0.23 0.23 0.23 0.20 0.16 0.14 0.12 0.16 0.22 0.21 0.22 0.22 0.23 0.24 0.27 0.29 0.30 0.30 0.29 0.28 0.30 0.31 0.32 0.32 0.31
0.21 0.20 0.18 0.17 0.19 0.19 0.18 0.16 0.18 0.18 0.24 0.21 0.21 0.22 0.19 0.24 0.26 0.27 0.28 0.29 0.28 0.29 0.30 0.31 0.32 0.30 0.28
0.16 0.16 0.16 0.18 0.21 0.24 0.25 0.23 0.21 0.21 0.25 0.25 0.23 0.23 0.23 0.22 0.25 0.28 0.29 0.28 0.27 0.28 0.29 0.30 0.30 0.30 0.27
0.15 0.16 0.19 0.23 0.25 0.26 0.27 0.28 0.28 0.26 0.28 0.28 0.25 0.25 0.24 0.23 0.23 0.27 0.28 0.28 0.29 0.28 0.29 0.30 0.30 0.30 0.31
0.18 0.21 0.23 0.25 0.26 0.26 0.27 0.28 0.28 0.29 0.29 0.30 0.29 0.28 0.27 0.25 0.24 0.25 0.26 0.27 0.29 0.29 0.30 0.30 0.29 0.29 0.27
0.22 0.24 0.25 0.25 0.25 0.26 0.25 0.25 0.25 0.26 0.29 0.31 0.31 0.30 0.27 0.28 0.27 0.26 0.28 0.25 0.28 0.29 0.30 0.30 0.31 0.31 0.30
0.24 0.24 0.24 0.25 0.25 0.26 0.26 0.25 0.24 0.24 0.26 0.29 0.31 0.31 0.31 0.30 0.27 0.28 0.28 0.28 0.30 0.29 0.29 0.27 0.29 0.30 0.29
0.25 0.25 0.25 0.24 0.24 0.25 0.26 0.26 0.25 0.26 0.27 0.29 0.30 0.29 0.30 0.31 0.33 0.29 0.30 0.29 0.30 0.30 0.31 0.27 0.26 0.29 0.29
0.26 0.26 0.25 0.25 0.25 0.26 0.27 0.27 0.27 0.28 0.29 0.31 0.30 0.29 0.26 0.24 0.30 0.34 0.30 0.32 0.31 0.30 0.30 0.29 0.26 0.26 0.28

GFSFLT2_prec_pwat_063.txt.gz
Precipitable_Water
0.77 0.82 0.83 0.86 0.88 0.88 0.92 0.93 0.95 0.94 0.94 0.93 0.91 0.90 0.90 0.89 0.87 0.87 0.88 0.87 0.85 0.84 0.84 0.84 0.82 0.79 0.75
0.69 0.74 0.75 0.81 0.83 0.82 0.82 0.84 0.83 0.87 0.89 0.87 0.85 0.85 0.85 0.85 0.83 0.82 0.80 0.79 0.78 0.78 0.76 0.72 0.69 0.66 0.64
0.66 0.70 0.75 0.76 0.74 0.74 0.77 0.76 0.78 0.80 0.80 0.81 0.81 0.81 0.80 0.75 0.72 0.70 0.69 0.66 0.62 0.58 0.55 0.51 0.48 0.47 0.46
0.65 0.66 0.69 0.72 0.69 0.67 0.67 0.72 0.72 0.76 0.75 0.72 0.67 0.63 0.61 0.59 0.55 0.50 0.46 0.42 0.37 0.34 0.33 0.33 0.34 0.35 0.37
0.60 0.64 0.65 0.65 0.63 0.63 0.56 0.55 0.53 0.50 0.46 0.45 0.42 0.39 0.34 0.29 0.25 0.23 0.23 0.24 0.25 0.26 0.28 0.31 0.33 0.34 0.35
0.41 0.39 0.38 0.39 0.38 0.34 0.31 0.27 0.22 0.26 0.21 0.18 0.19 0.16 0.16 0.16 0.18 0.19 0.22 0.24 0.27 0.29 0.31 0.32 0.32 0.33 0.33
0.18 0.18 0.18 0.19 0.19 0.18 0.18 0.17 0.16 0.18 0.18 0.12 0.15 0.12 0.16 0.19 0.21 0.24 0.26 0.28 0.30 0.31 0.32 0.32 0.32 0.32 0.32
0.20 0.20 0.21 0.21 0.21 0.19 0.18 0.17 0.18 0.18 0.18 0.11 0.15 0.16 0.20 0.23 0.25 0.26 0.27 0.29 0.31 0.32 0.31 0.31 0.31 0.31 0.32
0.27 0.26 0.26 0.25 0.25 0.22 0.18 0.16 0.13 0.14 0.19 0.18 0.20 0.21 0.22 0.22 0.25 0.28 0.30 0.30 0.30 0.30 0.30 0.30 0.30 0.30 0.31
0.22 0.22 0.22 0.20 0.21 0.22 0.19 0.15 0.16 0.17 0.23 0.21 0.22 0.22 0.18 0.23 0.25 0.27 0.28 0.28 0.29 0.30 0.29 0.29 0.30 0.30 0.29
0.19 0.18 0.19 0.20 0.21 0.23 0.24 0.23 0.21 0.21 0.26 0.26 0.23 0.23 0.22 0.21 0.24 0.26 0.27 0.28 0.28 0.29 0.29 0.29 0.30 0.31 0.29
0.18 0.18 0.19 0.22 0.25 0.27 0.27 0.27 0.28 0.27 0.29 0.29 0.25 0.24 0.23 0.22 0.21 0.26 0.27 0.28 0.29 0.28 0.29 0.30 0.31 0.32 0.32
0.19 0.20 0.24 0.26 0.27 0.27 0.28 0.29 0.29 0.29 0.30 0.30 0.28 0.27 0.26 0.24 0.23 0.25 0.25 0.27 0.29 0.28 0.29 0.29 0.29 0.30 0.28
0.22 0.25 0.27 0.26 0.26 0.27 0.26 0.26 0.25 0.25 0.28 0.29 0.29 0.29 0.27 0.27 0.27 0.26 0.28 0.25 0.28 0.29 0.29 0.29 0.31 0.31 0.30
0.25 0.25 0.26 0.26 0.26 0.27 0.26 0.25 0.23 0.23 0.25 0.28 0.30 0.30 0.30 0.29 0.27 0.28 0.29 0.29 0.31 0.31 0.30 0.28 0.30 0.31 0.31
0.25 0.26 0.26 0.25 0.25 0.26 0.26 0.25 0.24 0.25 0.26 0.28 0.29 0.29 0.29 0.30 0.33 0.30 0.31 0.31 0.33 0.33 0.33 0.30 0.29 0.32 0.32
0.23 0.24 0.25 0.25 0.24 0.24 0.24 0.24 0.23 0.25 0.26 0.29 0.29 0.28 0.25 0.23 0.30 0.34 0.31 0.32 0.32 0.31 0.32 0.31 0.28 0.29 0.30

GFSFLT2_prec_pwat_066.txt.gz
Precipitable_Water
0.67 0.70 0.71 0.72 0.76 0.82 0.89 0.90 0.92 0.94 0.95 0.94 0.94 0.94 0.93 0.93 0.93 0.92 0.92 0.92 0.91 0.90 0.89 0.89 0.89 0.90 0.90
0.61 0.65 0.67 0.72 0.73 0.76 0.81 0.84 0.85 0.88 0.89 0.89 0.90 0.89 0.88 0.87 0.85 0.86 0.85 0.84 0.84 0.83 0.82 0.82 0.81 0.79 0.79
0.57 0.63 0.65 0.66 0.67 0.70 0.72 0.73 0.77 0.79 0.80 0.81 0.83 0.81 0.82 0.82 0.80 0.80 0.77 0.75 0.73 0.72 0.72 0.68 0.63 0.61 0.60
0.54 0.53 0.55 0.58 0.59 0.57 0.59 0.63 0.61 0.63 0.66 0.67 0.64 0.64 0.64 0.63 0.61 0.59 0.58 0.57 0.54 0.49 0.44 0.40 0.37 0.36 0.37
0.38 0.40 0.41 0.41 0.41 0.43 0.42 0.42 0.42 0.43 0.43 0.44 0.45 0.45 0.44 0.43 0.40 0.36 0.32 0.29 0.27 0.26 0.26 0.27 0.29 0.31 0.33
0.26 0.25 0.24 0.24 0.25 0.25 0.24 0.22 0.19 0.25 0.22 0.20 0.21 0.19 0.18 0.17 0.17 0.18 0.19 0.20 0.22 0.24 0.27 0.31 0.33 0.33 0.33
0.18 0.19 0.19 0.21 0.21 0.19 0.19 0.18 0.16 0.19 0.18 0.13 0.17 0.14 0.17 0.17 0.19 0.22 0.24 0.26 0.28 0.30 0.32 0.33 0.33 0.33 0.32
0.26 0.25 0.24 0.25 0.24 0.23 0.21 0.20 0.19 0.19 0.19 0.12 0.16 0.16 0.19 0.21 0.22 0.24 0.26 0.28 0.30 0.31 0.32 0.33 0.32 0.31 0.31
0.29 0.28 0.28 0.27 0.26 0.23 0.19 0.17 0.14 0.15 0.19 0.17 0.18 0.19 0.21 0.22 0.24 0.27 0.29 0.30 0.31 0.32 0.32 0.31 0.32 0.31 0.31
0.24 0.23 0.22 0.22 0.22 0.23 0.20 0.16 0.16 0.16 0.22 0.20 0.21 0.22 0.18 0.23 0.24 0.25 0.27 0.29 0.29 0.29 0.30 0.30 0.30 0.29 0.28
0.20 0.20 0.21 0.21 0.23 0.24 0.25 0.24 0.22 0.21 0.26 0.26 0.24 0.23 0.23 0.21 0.23 0.25 0.25 0.26 0.27 0.27 0.28 0.29 0.30 0.30 0.28
0.21 0.21 0.21 0.23 0.26 0.28 0.28 0.29 0.28 0.27 0.29 0.29 0.25 0.24 0.22 0.21 0.20 0.24 0.25 0.26 0.27 0.27 0.28 0.29 0.30 0.30 0.32
0.23 0.23 0.25 0.28 0.29 0.29 0.29 0.29 0.29 0.30 0.30 0.30 0.28 0.27 0.25 0.22 0.22 0.23 0.24 0.27 0.29 0.28 0.29 0.29 0.29 0.29 0.27
0.25 0.27 0.29 0.29 0.28 0.29 0.27 0.27 0.26 0.26 0.29 0.29 0.28 0.27 0.25 0.26 0.26 0.25 0.28 0.26 0.29 0.30 0.30 0.30 0.31 0.31 0.31
0.26 0.26 0.27 0.28 0.28 0.29 0.28 0.27 0.25 0.24 0.25 0.27 0.29 0.29 0.29 0.28 0.26 0.28 0.29 0.29 0.31 0.32 0.32 0.30 0.32 0.33 0.33
0.26 0.25 0.24 0.25 0.26 0.27 0.27 0.25 0.23 0.23 0.23 0.25 0.25 0.25 0.26 0.28 0.31 0.28 0.29 0.30 0.32 0.33 0.33 0.30 0.30 0.34 0.35
0.25 0.25 0.24 0.23 0.23 0.22 0.21 0.22 0.21 0.21 0.21 0.22 0.23 0.23 0.21 0.20 0.26 0.31 0.29 0.32 0.32 0.32 0.33 0.32 0.30 0.32 0.33

GFSFLT2_prec_pwat_072.txt.gz
Precipitable_Water
0.67 0.67 0.64 0.63 0.66 0.68 0.70 0.69 0.72 0.75 0.78 0.80 0.83 0.84 0.88 0.94 0.98 0.99 0.99 0.99 0.96 0.94 0.94 0.94 0.95 0.95 0.95
0.61 0.61 0.60 0.62 0.60 0.61 0.63 0.64 0.63 0.69 0.72 0.71 0.73 0.76 0.80 0.84 0.88 0.90 0.92 0.93 0.92 0.91 0.91 0.92 0.91 0.91 0.91
0.44 0.47 0.50 0.52 0.48 0.51 0.51 0.52 0.53 0.54 0.57 0.59 0.61 0.61 0.64 0.68 0.71 0.78 0.82 0.82 0.83 0.83 0.83 0.83 0.83 0.83 0.84
0.39 0.39 0.40 0.41 0.40 0.36 0.38 0.42 0.41 0.44 0.46 0.48 0.51 0.52 0.54 0.57 0.58 0.59 0.62 0.64 0.67 0.70 0.70 0.69 0.69 0.70 0.70
0.32 0.32 0.30 0.29 0.27 0.28 0.26 0.27 0.29 0.30 0.31 0.32 0.35 0.37 0.40 0.43 0.45 0.48 0.49 0.51 0.52 0.53 0.54 0.53 0.52 0.47 0.43
0.23 0.22 0.23 0.24 0.25 0.24 0.24 0.22 0.21 0.27 0.22 0.21 0.22 0.20 0.21 0.21 0.22 0.23 0.25 0.26 0.28 0.28 0.28 0.27 0.26 0.27 0.27
0.25 0.24 0.25 0.26 0.27 0.26 0.26 0.24 0.23 0.24 0.21 0.18 0.20 0.18 0.21 0.21 0.21 0.22 0.21 0.21 0.22 0.23 0.23 0.24 0.26 0.28 0.30
0.31 0.31 0.31 0.32 0.30 0.28 0.26 0.24 0.24 0.23 0.23 0.18 0.21 0.20 0.23 0.24 0.24 0.24 0.25 0.26 0.27 0.29 0.30 0.30 0.31 0.33 0.35
0.30 0.30 0.30 0.30 0.30 0.28 0.26 0.23 0.22 0.22 0.25 0.23 0.25 0.24 0.25 0.25 0.27 0.29 0.30 0.30 0.31 0.32 0.33 0.34 0.35 0.35 0.34
0.27 0.26 0.27 0.27 0.28 0.29 0.27 0.24 0.24 0.25 0.29 0.26 0.26 0.26 0.24 0.28 0.28 0.29 0.29 0.30 0.30 0.31 0.32 0.33 0.34 0.33 0.32
0.27 0.27 0.28 0.29 0.30 0.30 0.31 0.31 0.29 0.29 0.33 0.31 0.29 0.28 0.27 0.26 0.28 0.30 0.31 0.30 0.30 0.30 0.30 0.31 0.31 0.31 0.29
0.28 0.28 0.28 0.30 0.32 0.33 0.34 0.35 0.35 0.33 0.33 0.32 0.27 0.27 0.26 0.25 0.25 0.30 0.31 0.31 0.31 0.29 0.30 0.30 0.30 0.30 0.30
0.29 0.30 0.31 0.33 0.33 0.34 0.35 0.34 0.32 0.30 0.30 0.30 0.29 0.29 0.28 0.25 0.24 0.25 0.25 0.29 0.31 0.30 0.30 0.30 0.29 0.30 0.28
0.32 0.32 0.32 0.32 0.30 0.30 0.27 0.27 0.25 0.26 0.30 0.30 0.29 0.28 0.26 0.26 0.26 0.25 0.27 0.25 0.30 0.31 0.31 0.31 0.31 0.32 0.31
0.33 0.32 0.31 0.30 0.26 0.26 0.23 0.23 0.21 0.22 0.23 0.27 0.28 0.28 0.27 0.26 0.23 0.24 0.25 0.26 0.28 0.29 0.29 0.27 0.30 0.32 0.33
0.33 0.32 0.28 0.25 0.23 0.23 0.23 0.22 0.21 0.22 0.22 0.24 0.24 0.23 0.23 0.25 0.28 0.24 0.26 0.27 0.29 0.29 0.28 0.26 0.26 0.30 0.32
0.32 0.28 0.24 0.23 0.22 0.22 0.22 0.22 0.22 0.23 0.24 0.25 0.24 0.24 0.22 0.20 0.26 0.31 0.27 0.28 0.27 0.26 0.28 0.27 0.26 0.28 0.31

GFSFLT2_prec_pwat_075.txt.gz
Precipitable_Water
0.68 0.69 0.67 0.66 0.65 0.65 0.67 0.66 0.66 0.67 0.69 0.71 0.72 0.74 0.75 0.78 0.87 0.92 0.98 1.02 1.04 1.04 1.02 1.00 0.98 0.97 0.97
0.60 0.55 0.52 0.57 0.61 0.59 0.56 0.57 0.56 0.55 0.57 0.59 0.61 0.65 0.67 0.67 0.69 0.74 0.79 0.88 0.93 0.95 0.96 0.95 0.94 0.94 0.95
0.49 0.49 0.45 0.45 0.44 0.45 0.43 0.45 0.47 0.46 0.48 0.51 0.56 0.58 0.59 0.62 0.63 0.65 0.67 0.70 0.74 0.80 0.83 0.84 0.86 0.87 0.89
0.40 0.40 0.41 0.42 0.41 0.37 0.36 0.38 0.36 0.38 0.40 0.42 0.45 0.47 0.49 0.51 0.54 0.56 0.59 0.61 0.62 0.64 0.65 0.66 0.69 0.71 0.73
0.32 0.30 0.29 0.27 0.25 0.27 0.26 0.27 0.29 0.28 0.27 0.29 0.29 0.32 0.36 0.38 0.40 0.43 0.47 0.51 0.55 0.56 0.57 0.57 0.57 0.56 0.56
0.24 0.24 0.26 0.26 0.27 0.26 0.25 0.24 0.23 0.31 0.24 0.21 0.25 0.22 0.22 0.22 0.24 0.24 0.27 0.30 0.35 0.40 0.44 0.45 0.45 0.43 0.41
0.27 0.27 0.27 0.28 0.28 0.27 0.27 0.25 0.24 0.25 0.22 0.19 0.23 0.20 0.23 0.23 0.24 0.23 0.22 0.22 0.22 0.23 0.23 0.23 0.24 0.26 0.27
0.32 0.32 0.31 0.32 0.32 0.30 0.28 0.26 0.27 0.27 0.26 0.21 0.26 0.24 0.27 0.28 0.28 0.27 0.27 0.26 0.26 0.26 0.27 0.28 0.29 0.29 0.30
0.31 0.30 0.30 0.29 0.30 0.29 0.28 0.26 0.25 0.25 0.29 0.27 0.29 0.27 0.29 0.29 0.30 0.30 0.31 0.31 0.31 0.32 0.33 0.34 0.34 0.35 0.35
0.31 0.30 0.29 0.29 0.29 0.29 0.29 0.26 0.26 0.28 0.33 0.29 0.29 0.29 0.24 0.30 0.28 0.29 0.29 0.30 0.29 0.31 0.33 0.34 0.34 0.35 0.33
0.30 0.30 0.31 0.32 0.32 0.32 0.32 0.32 0.30 0.30 0.36 0.33 0.28 0.26 0.24 0.23 0.25 0.27 0.29 0.30 0.30 0.31 0.31 0.32 0.34 0.34 0.32
0.31 0.30 0.31 0.31 0.33 0.34 0.35 0.35 0.37 0.35 0.35 0.32 0.26 0.25 0.24 0.22 0.22 0.27 0.29 0.30 0.30 0.29 0.31 0.32 0.32 0.32 0.32
0.34 0.34 0.35 0.35 0.35 0.34 0.35 0.36 0.35 0.32 0.31 0.29 0.27 0.26 0.25 0.23 0.22 0.24 0.24 0.27 0.30 0.30 0.31 0.31 0.31 0.32 0.29
0.37 0.38 0.37 0.35 0.34 0.35 0.31 0.28 0.25 0.24 0.28 0.29 0.28 0.26 0.24 0.25 0.24 0.23 0.25 0.23 0.27 0.29 0.30 0.31 0.32 0.32 0.31
0.39 0.37 0.36 0.35 0.34 0.33 0.28 0.24 0.21 0.21 0.22 0.26 0.28 0.27 0.27 0.25 0.22 0.22 0.23 0.24 0.27 0.28 0.29 0.28 0.29 0.31 0.31
0.39 0.38 0.36 0.35 0.33 0.29 0.26 0.23 0.22 0.23 0.23 0.25 0.25 0.24 0.24 0.25 0.28 0.25 0.26 0.26 0.29 0.30 0.30 0.27 0.25 0.29 0.30
0.39 0.38 0.37 0.35 0.30 0.25 0.24 0.24 0.23 0.24 0.24 0.26 0.26 0.24 0.22 0.20 0.26 0.31 0.26 0.28 0.28 0.27 0.27 0.27 0.25 0.27 0.29

GFSFLT2_prec_pwat_078.txt.gz
Precipitable_Water
0.71 0.70 0.67 0.62 0.63 0.64 0.62 0.62 0.63 0.64 0.63 0.60 0.60 0.62 0.65 0.67 0.72 0.75 0.82 0.85 0.92 0.99 1.02 1.05 1.06 1.03 1.01
0.62 0.60 0.54 0.50 0.48 0.50 0.55 0.54 0.52 0.51 0.52 0.53 0.54 0.56 0.58 0.61 0.65 0.68 0.71 0.78 0.83 0.85 0.87 0.91 0.94 0.96 0.98
0.47 0.51 0.47 0.46 0.42 0.42 0.43 0.42 0.41 0.41 0.42 0.44 0.48 0.52 0.56 0.55 0.57 0.59 0.63 0.66 0.70 0.73 0.76 0.77 0.79 0.81 0.85
0.39 0.38 0.39 0.39 0.37 0.32 0.31 0.33 0.30 0.31 0.31 0.35 0.37 0.40 0.43 0.46 0.48 0.51 0.55 0.57 0.60 0.63 0.64 0.66 0.66 0.67 0.68
0.33 0.32 0.29 0.26 0.24 0.26 0.25 0.25 0.28 0.29 0.28 0.28 0.27 0.27 0.28 0.31 0.35 0.39 0.44 0.48 0.50 0.53 0.58 0.59 0.59 0.58 0.58
0.26 0.25 0.26 0.27 0.28 0.26 0.25 0.23 0.22 0.30 0.25 0.22 0.25 0.23 0.23 0.24 0.25 0.25 0.24 0.25 0.31 0.40 0.45 0.50 0.53 0.55 0.54
0.28 0.28 0.28 0.29 0.28 0.27 0.26 0.25 0.24 0.26 0.25 0.21 0.26 0.24 0.27 0.28 0.29 0.28 0.27 0.26 0.25 0.25 0.25 0.25 0.26 0.27 0.30
0.32 0.33 0.33 0.34 0.32 0.30 0.28 0.28 0.28 0.29 0.29 0.22 0.28 0.26 0.29 0.30 0.32 0.31 0.33 0.32 0.31 0.29 0.29 0.29 0.29 0.29 0.30
0.33 0.32 0.31 0.31 0.31 0.29 0.27 0.25 0.24 0.27 0.31 0.28 0.29 0.28 0.30 0.32 0.33 0.33 0.32 0.30 0.29 0.30 0.31 0.33 0.33 0.33 0.33
0.33 0.33 0.32 0.32 0.32 0.31 0.29 0.26 0.26 0.28 0.33 0.30 0.30 0.30 0.26 0.32 0.30 0.28 0.29 0.29 0.30 0.30 0.30 0.31 0.32 0.32 0.31
0.33 0.33 0.34 0.34 0.34 0.34 0.34 0.31 0.29 0.30 0.37 0.34 0.31 0.30 0.26 0.24 0.24 0.27 0.28 0.29 0.29 0.29 0.30 0.31 0.32 0.32 0.30
0.36 0.36 0.36 0.37 0.37 0.37 0.37 0.36 0.37 0.35 0.37 0.36 0.29 0.26 0.23 0.21 0.20 0.25 0.26 0.27 0.28 0.28 0.29 0.31 0.32 0.32 0.33
0.38 0.39 0.39 0.40 0.40 0.37 0.37 0.36 0.36 0.36 0.35 0.31 0.27 0.26 0.24 0.22 0.21 0.22 0.22 0.24 0.26 0.26 0.27 0.28 0.29 0.31 0.30
0.40 0.43 0.43 0.41 0.37 0.38 0.35 0.34 0.32 0.29 0.28 0.28 0.27 0.26 0.24 0.24 0.23 0.22 0.23 0.21 0.23 0.24 0.26 0.27 0.29 0.30 0.30
0.41 0.42 0.41 0.40 0.39 0.39 0.37 0.35 0.32 0.25 0.22 0.25 0.28 0.28 0.27 0.25 0.22 0.23 0.23 0.23 0.26 0.27 0.28 0.27 0.29 0.30 0.30
0.40 0.41 0.41 0.40 0.39 0.38 0.37 0.35 0.28 0.24 0.23 0.25 0.26 0.25 0.25 0.25 0.28 0.25 0.25 0.25 0.27 0.28 0.29 0.26 0.25 0.28 0.30
0.40 0.40 0.41 0.40 0.39 0.37 0.36 0.33 0.25 0.24 0.25 0.26 0.25 0.24 0.21 0.19 0.25 0.29 0.25 0.26 0.27 0.26 0.27 0.26 0.24 0.26 0.29

GFSFLT2_prec_pwat_084.txt.gz
Precipitable_Water
0.74 0.78 0.72 0.71 0.72 0.70 0.59 0.53 0.54 0.60 0.61 0.57 0.56 0.56 0.53 0.54 0.56 0.61 0.67 0.70 0.75 0.83 0.99 1.12 1.11 1.10 1.08
0.68 0.68 0.69 0.70 0.68 0.60 0.54 0.45 0.42 0.43 0.42 0.43 0.46 0.48 0.50 0.53 0.55 0.57 0.64 0.69 0.70 0.80 0.88 0.93 0.97 1.01 0.99
0.63 0.69 0.61 0.57 0.51 0.48 0.45 0.42 0.40 0.38 0.36 0.37 0.39 0.40 0.42 0.46 0.50 0.52 0.56 0.63 0.70 0.71 0.81 0.82 0.84 0.90 0.89
0.65 0.51 0.45 0.45 0.42 0.38 0.34 0.34 0.30 0.30 0.29 0.29 0.29 0.31 0.34 0.34 0.36 0.42 0.46 0.50 0.57 0.62 0.66 0.66 0.70 0.71 0.72
0.43 0.40 0.35 0.33 0.30 0.30 0.27 0.27 0.27 0.28 0.26 0.26 0.26 0.26 0.26 0.26 0.27 0.28 0.33 0.40 0.45 0.47 0.55 0.58 0.59 0.61 0.63
0.38 0.36 0.33 0.31 0.32 0.30 0.29 0.26 0.22 0.30 0.26 0.25 0.27 0.25 0.27 0.28 0.30 0.30 0.27 0.27 0.29 0.37 0.45 0.47 0.49 0.50 0.52
0.30 0.30 0.30 0.34 0.34 0.31 0.29 0.27 0.25 0.28 0.27 0.23 0.28 0.26 0.29 0.30 0.33 0.33 0.33 0.32 0.30 0.29 0.29 0.30 0.34 0.37 0.39
0.36 0.37 0.38 0.38 0.37 0.35 0.33 0.31 0.31 0.31 0.30 0.23 0.28 0.28 0.30 0.33 0.37 0.37 0.36 0.36 0.36 0.36 0.36 0.34 0.31 0.27 0.26
0.38 0.38 0.38 0.39 0.37 0.35 0.31 0.29 0.27 0.29 0.33 0.30 0.31 0.30 0.32 0.34 0.36 0.37 0.37 0.39 0.38 0.38 0.35 0.32 0.32 0.32 0.30
0.37 0.38 0.39 0.42 0.40 0.37 0.35 0.30 0.29 0.28 0.35 0.32 0.32 0.31 0.29 0.36 0.36 0.37 0.36 0.37 0.36 0.33 0.31 0.30 0.30 0.29 0.29
0.34 0.35 0.39 0.42 0.43 0.42 0.40 0.37 0.34 0.33 0.39 0.37 0.34 0.34 0.33 0.31 0.33 0.34 0.33 0.30 0.27 0.27 0.28 0.28 0.29 0.30 0.28
0.34 0.34 0.37 0.40 0.43 0.45 0.45 0.43 0.42 0.39 0.41 0.39 0.35 0.34 0.32 0.30 0.29 0.31 0.28 0.26 0.26 0.25 0.26 0.28 0.28 0.29 0.29
0.33 0.34 0.37 0.40 0.44 0.47 0.48 0.46 0.43 0.42 0.41 0.40 0.38 0.37 0.35 0.32 0.30 0.26 0.23 0.23 0.24 0.24 0.26 0.24 0.23 0.24 0.23
0.32 0.35 0.40 0.41 0.45 0.50 0.46 0.44 0.41 0.40 0.41 0.40 0.40 0.39 0.36 0.35 0.32 0.25 0.25 0.22 0.25 0.25 0.25 0.26 0.26 0.27 0.27
0.34 0.40 0.41 0.45 0.49 0.46 0.44 0.43 0.40 0.38 0.38 0.40 0.41 0.41 0.41 0.38 0.31 0.27 0.25 0.25 0.27 0.27 0.27 0.25 0.26 0.27 0.27
0.40 0.44 0.45 0.44 0.41 0.41 0.42 0.42 0.41 0.40 0.39 0.39 0.39 0.39 0.38 0.38 0.33 0.27 0.27 0.26 0.27 0.28 0.27 0.24 0.22 0.25 0.26
0.39 0.43 0.47 0.43 0.41 0.40 0.40 0.40 0.40 0.41 0.40 0.40 0.38 0.37 0.34 0.31 0.29 0.33 0.27 0.27 0.27 0.26 0.26 0.24 0.22 0.23 0.25

GFSFLT2_prec_pwat_087.txt.gz
Precipitable_Water
0.77 0.81 0.80 0.78 0.77 0.78 0.76 0.65 0.54 0.53 0.57 0.61 0.58 0.56 0.54 0.51 0.52 0.56 0.59 0.64 0.66 0.72 0.81 0.86 1.06 1.08 1.10
0.70 0.72 0.72 0.74 0.74 0.72 0.70 0.58 0.49 0.46 0.46 0.46 0.45 0.44 0.45 0.47 0.51 0.54 0.58 0.64 0.67 0.74 0.84 0.92 1.01 1.02 1.07
0.65 0.70 0.70 0.71 0.67 0.63 0.57 0.49 0.44 0.41 0.40 0.38 0.38 0.39 0.40 0.40 0.44 0.49 0.53 0.60 0.66 0.70 0.76 0.86 0.92 0.94 0.90
0.64 0.65 0.68 0.66 0.50 0.45 0.43 0.41 0.36 0.34 0.31 0.32 0.31 0.33 0.31 0.31 0.34 0.38 0.45 0.50 0.58 0.62 0.70 0.73 0.80 0.85 0.89
0.65 0.63 0.49 0.41 0.38 0.37 0.32 0.31 0.30 0.31 0.29 0.28 0.28 0.28 0.28 0.29 0.30 0.30 0.31 0.41 0.45 0.54 0.59 0.60 0.68 0.69 0.70
0.49 0.41 0.39 0.35 0.33 0.32 0.30 0.27 0.26 0.35 0.30 0.28 0.30 0.27 0.28 0.30 0.32 0.32 0.29 0.28 0.32 0.38 0.45 0.50 0.54 0.54 0.55
0.39 0.37 0.34 0.35 0.35 0.31 0.32 0.31 0.30 0.32 0.31 0.26 0.30 0.27 0.30 0.32 0.34 0.34 0.34 0.33 0.32 0.30 0.29 0.31 0.38 0.44 0.46
0.35 0.38 0.38 0.40 0.39 0.37 0.36 0.35 0.35 0.34 0.34 0.26 0.29 0.28 0.31 0.34 0.38 0.38 0.37 0.36 0.36 0.35 0.36 0.35 0.34 0.33 0.32
0.39 0.40 0.42 0.40 0.40 0.39 0.35 0.33 0.31 0.31 0.35 0.31 0.31 0.30 0.33 0.35 0.36 0.38 0.39 0.40 0.40 0.40 0.39 0.39 0.39 0.37 0.34
0.40 0.39 0.39 0.42 0.42 0.40 0.39 0.35 0.33 0.31 0.35 0.33 0.33 0.33 0.30 0.37 0.37 0.38 0.38 0.38 0.38 0.38 0.38 0.37 0.35 0.30 0.28
0.36 0.36 0.38 0.39 0.40 0.43 0.43 0.40 0.37 0.35 0.40 0.38 0.36 0.35 0.34 0.34 0.36 0.37 0.37 0.36 0.35 0.34 0.32 0.31 0.31 0.30 0.27
0.35 0.34 0.37 0.37 0.39 0.41 0.44 0.46 0.45 0.42 0.44 0.42 0.38 0.37 0.35 0.33 0.32 0.35 0.36 0.36 0.35 0.31 0.29 0.28 0.27 0.27 0.28
0.33 0.33 0.35 0.37 0.39 0.40 0.43 0.48 0.52 0.51 0.49 0.45 0.42 0.40 0.38 0.34 0.33 0.33 0.33 0.34 0.33 0.29 0.27 0.26 0.25 0.26 0.23
0.31 0.33 0.35 0.36 0.36 0.41 0.49 0.49 0.49 0.47 0.48 0.45 0.43 0.42 0.38 0.38 0.37 0.34 0.35 0.33 0.34 0.30 0.27 0.27 0.28 0.28 0.28
0.29 0.29 0.32 0.37 0.44 0.51 0.49 0.46 0.42 0.40 0.41 0.45 0.45 0.44 0.43 0.41 0.38 0.38 0.37 0.36 0.35 0.31 0.28 0.26 0.28 0.29 0.28
0.34 0.39 0.41 0.42 0.43 0.45 0.45 0.44 0.41 0.40 0.40 0.42 0.43 0.41 0.41 0.41 0.42 0.39 0.39 0.37 0.36 0.32 0.29 0.26 0.25 0.27 0.28
0.35 0.34 0.34 0.37 0.41 0.43 0.45 0.43 0.41 0.41 0.40 0.41 0.41 0.39 0.37 0.36 0.39 0.45 0.38 0.37 0.36 0.30 0.28 0.27 0.25 0.26 0.26

GFSFLT2_prec_pwat_090.txt.gz
Precipitable_Water
0.76 0.76 0.78 0.78 0.81 0.82 0.78 0.75 0.73 0.66 0.58 0.60 0.65 0.65 0.61 0.58 0.53 0.51 0.55 0.58 0.62 0.67 0.75 0.76 0.81 0.96 1.10
0.70 0.71 0.73 0.77 0.74 0.75 0.70 0.71 0.69 0.60 0.50 0.50 0.48 0.47 0.45 0.43 0.44 0.47 0.52 0.58 0.64 0.70 0.76 0.83 0.91 1.01 1.07
0.65 0.71 0.71 0.72 0.70 0.70 0.70 0.67 0.62 0.49 0.45 0.44 0.41 0.41 0.38 0.38 0.40 0.45 0.51 0.56 0.63 0.69 0.78 0.82 0.89 0.98 1.01
0.65 0.66 0.68 0.68 0.68 0.66 0.52 0.50 0.46 0.43 0.38 0.34 0.34 0.35 0.34 0.32 0.32 0.35 0.44 0.51 0.58 0.62 0.70 0.77 0.84 0.82 0.86
0.62 0.62 0.64 0.65 0.56 0.46 0.43 0.41 0.37 0.34 0.30 0.30 0.30 0.31 0.32 0.33 0.34 0.31 0.32 0.42 0.49 0.56 0.60 0.66 0.68 0.75 0.78
0.66 0.63 0.54 0.45 0.39 0.38 0.34 0.29 0.26 0.34 0.29 0.30 0.33 0.32 0.32 0.34 0.36 0.35 0.34 0.30 0.35 0.42 0.51 0.53 0.59 0.61 0.65
0.47 0.42 0.40 0.43 0.40 0.34 0.33 0.32 0.30 0.34 0.34 0.30 0.35 0.32 0.33 0.36 0.38 0.37 0.36 0.34 0.33 0.32 0.33 0.37 0.45 0.50 0.52
0.35 0.38 0.38 0.39 0.39 0.37 0.36 0.35 0.36 0.38 0.38 0.31 0.33 0.31 0.33 0.37 0.39 0.38 0.39 0.38 0.37 0.36 0.35 0.35 0.35 0.34 0.35
0.45 0.45 0.42 0.41 0.42 0.40 0.36 0.37 0.35 0.35 0.39 0.35 0.34 0.32 0.34 0.35 0.37 0.40 0.40 0.39 0.40 0.40 0.40 0.40 0.39 0.38 0.37
0.43 0.40 0.41 0.44 0.41 0.40 0.40 0.36 0.36 0.36 0.40 0.36 0.35 0.34 0.31 0.37 0.38 0.39 0.39 0.40 0.39 0.40 0.40 0.40 0.40 0.37 0.36
0.40 0.40 0.39 0.39 0.41 0.41 0.40 0.38 0.38 0.38 0.44 0.42 0.38 0.36 0.35 0.34 0.37 0.39 0.40 0.40 0.39 0.38 0.38 0.39 0.37 0.36 0.32
0.34 0.35 0.36 0.37 0.39 0.44 0.43 0.41 0.43 0.43 0.48 0.46 0.41 0.39 0.37 0.35 0.34 0.38 0.39 0.39 0.39 0.37 0.37 0.37 0.35 0.32 0.30
0.35 0.38 0.36 0.37 0.40 0.42 0.41 0.40 0.41 0.45 0.55 0.56 0.50 0.46 0.43 0.39 0.37 0.37 0.37 0.38 0.38 0.37 0.37 0.36 0.34 0.32 0.27
0.30 0.32 0.33 0.33 0.34 0.36 0.37 0.40 0.44 0.47 0.49 0.49 0.49 0.47 0.42 0.41 0.40 0.37 0.39 0.36 0.39 0.39 0.39 0.38 0.37 0.35 0.31
0.28 0.27 0.28 0.30 0.33 0.41 0.45 0.46 0.43 0.42 0.42 0.44 0.46 0.46 0.45 0.43 0.40 0.39 0.39 0.39 0.40 0.39 0.39 0.37 0.37 0.36 0.32
0.27 0.27 0.28 0.34 0.38 0.41 0.42 0.42 0.41 0.42 0.42 0.43 0.43 0.42 0.42 0.42 0.45 0.41 0.41 0.40 0.41 0.41 0.40 0.37 0.35 0.35 0.32
0.27 0.27 0.29 0.31 0.33 0.34 0.36 0.39 0.39 0.40 0.43 0.44 0.42 0.40 0.37 0.37 0.41 0.48 0.42 0.41 0.41 0.40 0.40 0.38 0.36 0.33 0.31